TimeEDT,TemperatureF,Dew PointF,Humidity,Sea Level PressureIn,VisibilityMPH,Wind Direction,Wind SpeedMPH,Gust SpeedMPH,PrecipitationIn,Events,Conditions,WindDirDegrees,DateUTC
12:51 AM,32.0,21.0,64,30.25,10.0,SE,3.5,-,N/A,,Overcast,130,2013-03-19 04:51:00
1:51 AM,33.8,21.2,60,30.21,10.0,ESE,4.6,-,N/A,,Overcast,120,2013-03-19 05:51:00
2:51 AM,33.1,21.9,64,30.19,10.0,ESE,9.2,-,N/A,,Overcast,120,2013-03-19 06:51:00
3:39 AM,32.0,24.1,73,30.16,3.0,ESE,10.4,-,0.00,Snow,Light Snow,110,2013-03-19 07:39:00
3:51 AM,30.9,24.1,76,30.17,2.5,East,12.7,-,0.00,Snow,Light Snow,100,2013-03-19 07:51:00
4:03 AM,30.0,26.1,85,30.17,1.2,East,13.8,-,0.00,Snow,Light Snow,100,2013-03-19 08:03:00
4:18 AM,28.9,26.1,89,30.17,1.0,East,11.5,-,0.00,Snow,Light Snow,90,2013-03-19 08:18:00
4:26 AM,28.9,27.0,92,30.17,0.8,ESE,9.2,-,0.01,Snow,Light Snow,110,2013-03-19 08:26:00
4:51 AM,28.9,27.0,92,30.17,0.5,ESE,10.4,-,0.04,Fog-Snow,Snow,110,2013-03-19 08:51:00
5:08 AM,28.9,27.0,92,30.17,0.5,East,16.1,-,0.02,Fog-Snow,Snow,100,2013-03-19 09:08:00
5:21 AM,28.9,27.0,92,30.16,0.5,East,15.0,-,0.04,Fog-Snow,Snow,100,2013-03-19 09:21:00
5:51 AM,28.9,27.0,92,30.15,0.5,East,18.4,25.3,0.07,Fog-Snow,Snow,100,2013-03-19 09:51:00
6:51 AM,28.9,27.0,92,30.14,0.5,ESE,12.7,-,0.04,Fog-Snow,Snow,110,2013-03-19 10:51:00
7:51 AM,30.0,27.0,88,30.12,0.5,ESE,18.4,25.3,0.02,Fog-Snow,Light Snow,110,2013-03-19 11:51:00
8:09 AM,30.0,27.0,88,30.11,1.0,ESE,13.8,-,0.00,Snow,Light Snow,110,2013-03-19 12:09:00
8:22 AM,30.0,27.0,88,30.10,0.5,East,15.0,-,0.01,Fog-Snow,Light Snow,100,2013-03-19 12:22:00
8:51 AM,30.0,28.0,92,30.09,0.5,East,18.4,-,0.02,Fog-Snow,Snow,100,2013-03-19 12:51:00
9:51 AM,30.9,28.0,89,30.07,0.5,East,20.7,27.6,0.02,Fog-Snow,Light Snow,100,2013-03-19 13:51:00
10:51 AM,30.9,28.0,89,30.04,0.5,East,23.0,-,0.02,Fog-Snow,Snow,90,2013-03-19 14:51:00
11:51 AM,30.9,28.0,89,30.01,0.5,East,23.0,32.2,0.02,Fog-Snow,Light Snow,90,2013-03-19 15:51:00
12:51 PM,30.9,28.9,92,29.96,0.8,East,27.6,35.7,0.02,Snow,Light Snow,80,2013-03-19 16:51:00
1:07 PM,30.9,28.9,92,29.94,0.5,East,25.3,38.0,0.01,Fog-Snow,Snow,100,2013-03-19 17:07:00
1:51 PM,30.9,28.0,89,29.91,0.8,East,25.3,39.1,0.02,Snow,Light Snow,90,2013-03-19 17:51:00
2:51 PM,30.9,28.9,92,29.85,0.5,East,25.3,34.5,0.03,Fog-Snow,Snow,80,2013-03-19 18:51:00
3:51 PM,30.0,27.0,88,29.86,0.5,ENE,24.2,38.0,0.03,Fog-Snow,Snow,60,2013-03-19 19:51:00
4:51 PM,30.0,28.0,92,29.83,0.5,NE,15.0,-,0.10,Fog-Snow,Snow,40,2013-03-19 20:51:00
5:17 PM,28.9,28.0,96,29.82,0.2,NE,12.7,-,0.05,Fog-Snow,Heavy Snow,40,2013-03-19 21:17:00
5:51 PM,28.0,26.1,92,29.80,0.8,NE,17.3,29.9,0.11,Snow,Light Snow,50,2013-03-19 21:51:00
6:51 PM,27.0,25.0,92,29.75,0.5,NE,16.1,28.8,0.03,Fog-Snow,Snow,40,2013-03-19 22:51:00
7:51 PM,26.1,23.0,88,29.73,1.5,NNE,18.4,24.2,0.01,Snow,Light Snow,30,2013-03-19 23:51:00
8:51 PM,25.0,21.9,88,29.72,1.0,North,17.3,21.9,0.03,Snow,Light Snow,10,2013-03-20 00:51:00
9:51 PM,25.0,21.9,88,29.70,1.5,North,13.8,-,0.03,Snow,Light Snow,360,2013-03-20 01:51:00
10:51 PM,24.1,21.0,88,29.69,1.5,NNW,18.4,-,0.01,Snow,Light Snow,340,2013-03-20 02:51:00
11:51 PM,24.1,19.9,84,29.67,1.5,North,19.6,26.5,0.01,Snow,Light Snow,360,2013-03-20 03:51:00